Weather History for KOSC - August, 2013

Change the Weather History Date:

Friday, August 16, 2013

  Actual Average Record
Temperature  
Mean Temperature 62 °F -  
Max Temperature 74 °F 74 °F 88 °F (2015)
Min Temperature 49 °F 55 °F 44 °F (2004)
Degree Days  
Heating Degree Days 4    
Growing Degree Days 12 (Base 50)    
Moisture  
Dew Point 53 °F    
Average Humidity 70    
Maximum Humidity 91    
Minimum Humidity 46    
Precipitation  
Precipitation 0.00 in - - ()
Sea Level Pressure  
Sea Level Pressure 30.16 in    
Wind  
Wind Speed 4 mph (East)    
Max Wind Speed 9 mph    
Max Gust Speed -    
Visibility 10 miles    
Events      
Averages and records for this station are not official NWS values.
T = Trace of Precipitation, MM = Missing Value Source: NWS Daily Summary

Daily Weather History Graph

Daily Weather History Graph

Search for Another Location

Airport or City:

Trip Planner

Search our weather history database for the weather conditions in past years. The results will help you decide how hot, cold, wet, or windy it might be!

Date:

Astronomy

Aug. 16, 2013 Rise Set
Actual Time 6:37 AM EDT 8:36 PM EDT
Civil Twilight 6:06 AM EDT 9:08 PM EDT
Nautical Twilight 5:27 AM EDT 9:46 PM EDT
Astronomical Twilight 4:45 AM EDT 10:28 PM EDT
Moon 4:59 PM EDT (8/16) 1:35 AM EDT (8/16)
Length of Visible Light 15h 01m
Length of Day
13h 58m
Waxing Gibbous, 74% of the Moon is Illuminated
Aug 16
Waxing Gibbous
Aug 20
Full
Aug 28
Last Quarter
Sep 5
New
Sep 12
First Quarter

Hourly Weather History & Observations

Time (EDT) Temp. Dew Point Humidity Pressure Visibility Wind Dir Wind Speed Gust Speed Precip Events Conditions
12:13 AM 56.3 °F 53.4 °F 90% 30.10 in 10.0 mi NW 6.9 mph - N/A   Clear
12:34 AM 56.3 °F 52.9 °F 88% 30.10 in 10.0 mi NW 6.9 mph - N/A   Clear
12:53 AM 55.9 °F 52.5 °F 88% 30.10 in 10.0 mi NW 6.9 mph - N/A   Clear
1:14 AM 55.6 °F 52.2 °F 88% 30.10 in 10.0 mi NNW 3.5 mph - N/A   Clear
1:53 AM 54.9 °F 51.1 °F 87% 30.10 in 10.0 mi NW 4.6 mph - N/A   Clear
2:14 AM 54.5 °F 50.9 °F 88% 30.10 in 10.0 mi NW 5.8 mph - N/A   Clear
2:34 AM 54.0 °F 50.5 °F 88% 30.10 in 10.0 mi NW 4.6 mph - N/A   Clear
2:53 AM 54.0 °F 50.0 °F 86% 30.10 in 10.0 mi NNW 3.5 mph - N/A   Clear
3:14 AM 54.9 °F 50.2 °F 84% 30.10 in 10.0 mi Calm Calm - N/A   Clear
3:34 AM 54.5 °F 49.3 °F 83% 30.11 in 10.0 mi Calm Calm - N/A   Clear
3:53 AM 53.8 °F 48.7 °F 83% 30.11 in 10.0 mi Calm Calm - N/A   Clear
4:14 AM 52.2 °F 47.5 °F 84% 30.11 in 10.0 mi Calm Calm - N/A   Clear
4:34 AM 51.3 °F 48.2 °F 89% 30.11 in 10.0 mi Calm Calm - N/A   Clear
4:53 AM 51.8 °F 47.7 °F 86% 30.12 in 10.0 mi Calm Calm - N/A   Clear
5:14 AM 51.3 °F 47.5 °F 87% 30.12 in 10.0 mi Calm Calm - N/A   Clear
5:34 AM 50.5 °F 47.1 °F 88% 30.12 in 10.0 mi WSW 3.5 mph - N/A   Clear
5:54 AM 50.4 °F 46.2 °F 86% 30.13 in 10.0 mi Calm Calm - N/A   Clear
6:14 AM 49.8 °F 46.4 °F 88% 30.13 in 10.0 mi Calm Calm - N/A   Clear
6:34 AM 49.8 °F 47.1 °F 90% 30.13 in 10.0 mi Calm Calm - N/A   Clear
6:54 AM 50.0 °F 47.3 °F 90% 30.14 in 10.0 mi Calm Calm - N/A   Clear
7:14 AM 51.4 °F 48.4 °F 89% 30.14 in 10.0 mi Calm Calm - N/A   Clear
7:33 AM 51.8 °F 48.2 °F 88% 30.15 in 10.0 mi Calm Calm - N/A   Clear
7:54 AM 54.5 °F 50.5 °F 86% 30.15 in 10.0 mi Calm Calm - N/A   Clear
8:14 AM 56.3 °F 51.1 °F 83% 30.15 in 10.0 mi Calm Calm - N/A   Clear
8:33 AM 58.6 °F 51.4 °F 77% 30.16 in 10.0 mi Calm Calm - N/A   Clear
8:54 AM 60.8 °F 52.5 °F 74% 30.16 in 10.0 mi Calm Calm - N/A   Clear
9:14 AM 62.1 °F 53.4 °F 73% 30.17 in 10.0 mi Calm Calm - N/A   Clear
9:33 AM 64.4 °F 55.0 °F 72% 30.17 in 10.0 mi NW 4.6 mph - N/A   Clear
9:54 AM 66.4 °F 55.2 °F 67% 30.17 in 10.0 mi Calm Calm - N/A   Clear
10:14 AM 68.9 °F 55.6 °F 62% 30.17 in 10.0 mi NNE 5.8 mph - N/A   Clear
10:33 AM 70.0 °F 54.1 °F 57% 30.17 in 10.0 mi NE 3.5 mph - N/A   Clear
10:54 AM 71.6 °F 54.7 °F 55% 30.17 in 10.0 mi NNE 4.6 mph - N/A   Clear
11:14 AM 73.2 °F 54.5 °F 52% 30.17 in 10.0 mi NNE 4.6 mph - N/A   Clear
11:33 AM 74.3 °F 53.8 °F 49% 30.17 in 10.0 mi NNE 4.6 mph - N/A   Clear
11:54 AM 74.7 °F 52.9 °F 46% 30.17 in 10.0 mi Calm Calm - N/A   Clear
12:14 PM 74.1 °F 55.4 °F 52% 30.17 in 10.0 mi East 6.9 mph - N/A   Clear
12:33 PM 74.1 °F 55.2 °F 52% 30.17 in 10.0 mi East 6.9 mph - N/A   Clear
12:54 PM 73.9 °F 55.2 °F 52% 30.17 in 10.0 mi East 6.9 mph - N/A   Clear
1:14 PM 73.4 °F 55.8 °F 54% 30.18 in 10.0 mi East 6.9 mph - N/A   Clear
1:33 PM 73.4 °F 55.8 °F 54% 30.18 in 10.0 mi ESE 8.1 mph - N/A   Clear
1:54 PM 73.6 °F 55.4 °F 53% 30.18 in 10.0 mi ESE 8.1 mph - N/A   Clear
2:14 PM 73.8 °F 55.4 °F 53% 30.18 in 10.0 mi East 6.9 mph - N/A   Clear
2:33 PM 73.6 °F 55.6 °F 53% 30.17 in 10.0 mi ESE 9.2 mph - N/A   Clear
2:54 PM 73.4 °F 55.6 °F 54% 30.17 in 10.0 mi ESE 8.1 mph - N/A   Clear
3:14 PM 72.9 °F 55.8 °F 55% 30.18 in 10.0 mi ESE 8.1 mph - N/A   Clear
3:33 PM 72.9 °F 54.9 °F 53% 30.18 in 10.0 mi ESE 8.1 mph - N/A   Clear
3:54 PM 72.7 °F 54.9 °F 53% 30.17 in 10.0 mi East 8.1 mph - N/A   Clear
4:14 PM 73.4 °F 54.3 °F 51% 30.18 in 10.0 mi ESE 6.9 mph - N/A   Clear
4:33 PM 73.4 °F 54.0 °F 50% 30.17 in 10.0 mi ESE 6.9 mph - N/A   Clear
4:54 PM 73.2 °F 54.1 °F 51% 30.18 in 10.0 mi ESE 5.8 mph - N/A   Clear
5:14 PM 72.9 °F 54.1 °F 52% 30.18 in 10.0 mi ESE 6.9 mph - N/A   Clear
5:33 PM 72.7 °F 53.8 °F 51% 30.18 in 10.0 mi ESE 8.1 mph - N/A   Clear
5:54 PM 72.5 °F 53.1 °F 50% 30.18 in 10.0 mi ESE 5.8 mph - N/A   Clear
6:14 PM 72.3 °F 53.2 °F 51% 30.18 in 10.0 mi ESE 6.9 mph - N/A   Clear
6:34 PM 72.1 °F 52.2 °F 49% 30.18 in 10.0 mi SE 5.8 mph - N/A   Clear
6:54 PM 71.4 °F 52.2 °F 51% 30.18 in 10.0 mi SE 4.6 mph - N/A   Clear
7:14 PM 71.2 °F 52.2 °F 51% 30.18 in 10.0 mi SE 4.6 mph - N/A   Clear
7:34 PM 70.7 °F 52.9 °F 53% 30.18 in 10.0 mi SE 4.6 mph - N/A   Clear
7:54 PM 70.0 °F 52.5 °F 54% 30.18 in 10.0 mi SE 4.6 mph - N/A   Clear
8:14 PM 69.3 °F 53.2 °F 57% 30.19 in 10.0 mi SSE 3.5 mph - N/A   Clear
8:34 PM 68.4 °F 53.8 °F 60% 30.19 in 10.0 mi Calm Calm - N/A   Clear
8:54 PM 67.6 °F 55.4 °F 65% 30.19 in 10.0 mi Calm Calm - N/A   Clear
9:13 PM 62.8 °F 57.6 °F 83% 30.19 in 10.0 mi East 3.5 mph - N/A   Clear
9:34 PM 63.1 °F 58.6 °F 85% 30.20 in 10.0 mi Calm Calm - N/A   Clear
9:54 PM 59.4 °F 53.6 °F 81% 30.20 in 10.0 mi Calm Calm - N/A   Clear
10:13 PM 57.9 °F 53.8 °F 86% 30.21 in 10.0 mi Calm Calm - N/A   Clear
10:34 PM 56.5 °F 53.2 °F 89% 30.21 in 10.0 mi Calm Calm - N/A   Clear
10:54 PM 57.4 °F 54.1 °F 89% 30.21 in 10.0 mi Calm Calm - N/A   Clear
11:13 PM 56.1 °F 52.7 °F 88% 30.21 in 10.0 mi Calm Calm - N/A   Clear
11:34 PM 55.2 °F 52.3 °F 90% 30.22 in 10.0 mi Calm Calm - N/A   Clear
11:54 PM 54.9 °F 52.2 °F 91% 30.22 in 10.0 mi SW 3.5 mph - N/A   Clear